Tracking 19146 objects as of 25-Apr-2018
HD Live streaming from Space Station
objects crossing your sky now

HOOPOE

Track HOOPOE now!
10-day predictions
HOOPOE is classified as:


NORAD ID: 42718
Int'l Code: 1998-067LZ
Perigee: 364.6 km
Apogee: 367.5 km
Inclination: 51.6 °
Period: 91.7 minutes
Semi major axis: 6737 km
RCS: Unknown
Launch date: November 20, 1998
Source: (TBD)
Launch site: TYURATAM MISSILE AND SPACE COMPLEX (TTMTR)
Uplink (MHz):
Downlink (MHz): 437.740
Beacon (MHz):
Mode: 9600bps BPSK
Call sign: ON01IL
Status: Active

aabbcc
Your satellite tracking list
Your tracking list is empty




NASA's NSSDC Master Catalog

Two Line Element Set (TLE):
1 42718U 98067LZ  18114.78927973  .00030853  00000-0  25518-3 0  9992
2 42718  51.6350 266.3846 0002136  19.6686 340.4394 15.69991657 52582
Source of the keplerian elements: AFSPC